FW2487 Weather Reports


Display with metric or nautical units.
time (UTC)temp
F
wind
direction
speed
MPH
gust
MPH
rain 1hr
in
rain 24hr
in
rain mn
in
humidity
%
barometer
mb
20260902053030 61 359 1.0 6.0 0.00 0.00 0.00 64 1012.0
20260902051529 61 231 5.0 15.0 0.00 0.00 0.00 64 1011.9
20260902050029 61 270 4.0 12.0 0.00 0.00 0.00 65 1011.8
20260902044530 61 272 5.0 13.0 0.00 0.00 0.00 65 1011.6
20260902041530 61 267 3.0 12.0 0.00 0.00 0.00 64 1011.4
20260902040032 61 283 4.0 11.0 0.00 0.00 0.00 64 1011.3
20260902034602 61 281 6.0 14.0 0.00 0.00 0.00 64 1011.0
20260902033105 61 287 8.0 19.0 0.00 0.00 0.00 65 1010.9
20260902030104 61 285 7.0 14.0 0.00 0.00 0.00 64 1011.0
20260902023030 62 286 8.0 16.0 0.00 0.00 0.00 63 1010.9
20260902021532 62 284 6.0 15.0 0.00 0.00 0.00 62 1010.9
20260902020106 63 279 6.0 14.0 0.00 0.00 0.00 61 1010.9
20260902013033 65 278 10.0 20.0 0.00 0.00 0.00 58 1010.6
20260902011529 65 285 11.0 21.0 0.00 0.00 0.00 58 1010.5
20260902010031 66 291 7.0 19.0 0.00 0.00 0.00 58 1010.4
20260902004532 66 301 9.0 18.0 0.00 0.00 0.00 58 1010.2
20260902003029 65 305 9.0 22.0 0.00 0.00 0.00 59 1010.1
20260902000107 66 305 9.0 18.0 0.00 0.00 0.00 60 1009.9
20260901234530 65 312 9.0 16.0 0.00 0.00 0.00 61 1009.9
20260901233144 66 332 11.0 21.0 0.00 0.00 0.00 59 1009.8
20260901231532 67 323 11.0 22.0 0.00 0.00 0.00 58 1009.8
20260901230035 67 324 13.0 24.0 0.00 0.00 0.00 58 1009.7
20260901224533 67 309 15.0 25.0 0.00 0.00 0.00 58 1009.6
20260901223107 67 298 15.0 28.0 0.00 0.00 0.00 57 1009.6
20260901221530 68 304 13.0 25.0 0.00 0.00 0.00 56 1009.2
20260901220027 68 298 14.0 26.0 0.00 0.00 0.00 56 1009.1
20260901214532 69 300 11.0 22.0 0.00 0.00 0.00 56 1009.1
20260901213108 69 307 13.0 23.0 0.00 0.00 0.00 56 1009.1
20260901210031 69 286 11.0 19.0 0.00 0.00 0.00 55 1009.3
20260901204644 69 293 11.0 22.0 0.00 0.00 0.00 54 1009.5
20260901203031 69 291 11.0 22.0 0.00 0.00 0.00 54 1009.6
20260901200032 68 303 10.0 19.0 0.00 0.00 0.00 54 1009.7
20260901194604 68 315 9.0 19.0 0.00 0.00 0.00 56 1009.9
20260901193103 67 302 12.0 22.0 0.00 0.00 0.00 57 1010.2
20260901191532 67 294 11.0 21.0 0.00 0.00 0.00 56 1010.4
20260901190030 68 301 9.0 22.0 0.00 0.00 0.00 57 1010.5
20260901184532 68 309 7.0 17.0 0.00 0.00 0.00 57 1010.5
20260901183030 67 326 8.0 17.0 0.00 0.00 0.00 58 1010.6
20260901181603 68 312 7.0 14.0 0.00 0.00 0.00 58 1010.7
20260901180027 66 307 4.0 9.0 0.00 0.00 0.00 61 1010.9
20260901174532 64 294 6.0 14.0 0.00 0.00 0.00 64 1010.9
20260901173032 63 304 6.0 13.0 0.00 0.00 0.00 66 1010.9
20260901171531 63 273 3.0 11.0 0.00 0.00 0.00 69 1011.1
20260901170031 60 237 0.0 3.0 0.00 0.00 0.00 75 1011.1
20260901164530 58 157 0.0 2.0 0.00 0.00 0.00 77 1011.1
20260901163031 57 123 1.0 3.0 0.00 0.00 0.00 79 1011.1
20260901160031 53 202 0.0 1.0 0.00 0.00 0.00 88 1011.0
20260901153041 50 225 1.0 2.0 0.00 0.00 0.00 89 1010.9
20260901151531 49 225 1.0 2.0 0.00 0.00 0.00 89 1010.8
20260901150143 49 203 1.0 2.0 0.00 0.00 0.00 88 1010.7
20260901144530 49 187 3.0 4.0 0.00 0.00 0.00 88 1010.6
20260901143030 48 173 3.0 5.0 0.00 0.00 0.00 87 1010.5
20260901141530 48 151 3.0 4.0 0.00 0.00 0.00 87 1010.5
20260901140106 48 157 3.0 5.0 0.00 0.00 0.00 87 1010.4
20260901134531 48 171 3.0 5.0 0.00 0.00 0.00 86 1010.2
20260901133028 48 180 3.0 5.0 0.00 0.00 0.00 85 1010.1
20260901131531 48 158 4.0 5.0 0.00 0.00 0.00 85 1010.0
20260901130029 48 145 3.0 4.0 0.00 0.00 0.00 84 1009.9
20260901124529 48 158 4.0 9.0 0.00 0.00 0.00 84 1009.8
20260901123031 48 169 3.0 7.0 0.00 0.00 0.00 83 1009.9
20260901121533 48 171 3.0 5.0 0.00 0.00 0.00 82 1009.8
20260901114531 49 171 3.0 4.0 0.00 0.00 0.00 82 1009.8
20260901113029 49 168 3.0 6.0 0.00 0.00 0.00 82 1009.8
20260901111533 49 162 3.0 5.0 0.00 0.00 0.00 81 1009.7
20260901110105 49 163 4.0 6.0 0.00 0.00 0.00 82 1009.8
20260901104530 49 186 2.0 4.0 0.00 0.00 0.00 81 1009.7
20260901103033 49 157 3.0 5.0 0.00 0.00 0.00 81 1009.8
20260901101529 49 164 3.0 5.0 0.00 0.00 0.00 80 1009.8
20260901100031 50 137 1.0 4.0 0.00 0.00 0.00 79 1009.8
20260901094531 50 145 2.0 4.0 0.00 0.00 0.00 80 1009.8
20260901093030 50 165 3.0 5.0 0.00 0.00 0.00 80 1009.8
20260901091646 51 168 4.0 5.0 0.00 0.00 0.00 78 1009.8
20260901090031 51 170 2.0 5.0 0.00 0.00 0.00 77 1009.7
20260901084530 52 168 2.0 4.0 0.00 0.00 0.00 77 1009.7
20260901083145 52 181 3.0 5.0 0.00 0.00 0.00 77 1009.9
20260901081531 52 185 2.0 7.0 0.00 0.00 0.00 77 1009.9
20260901080029 51 159 3.0 8.0 0.00 0.00 0.00 80 1009.8
20260901074530 51 168 2.0 5.0 0.00 0.00 0.00 80 1009.7
20260901073032 52 150 2.0 4.0 0.00 0.00 0.00 79 1009.6
20260901071529 52 158 3.0 4.0 0.00 0.00 0.00 78 1009.7
20260901070032 53 146 2.0 3.0 0.00 0.00 0.00 76 1009.7
20260901064531 53 154 4.0 5.0 0.00 0.00 0.00 77 1009.8
20260901063107 53 157 2.0 5.0 0.00 0.00 0.00 77 1009.9
20260901061530 53 178 2.0 4.0 0.00 0.00 0.00 76 1010.0
20260901054608 54 145 3.0 5.0 0.00 0.00 0.00 76 1010.0